Overview Statistics Trail Chart Weather Telemetry Raw packets
 

This is the latest recevied weather packets stored in our database for station/object VE1DX. If no packets are shown the sender has not sent any weather packets the latest 10 day(s).

<< 10 11 12 13 14 15 16 >>
Time Temp. Humidity Pressure Rain* Wind** Luminosity Snow
1788559217 19.44° C 100% 1002.6 hPa 0.76 mm - - -
1788558917 19.44° C 100% 1002.6 hPa 0.76 mm - - -
1788558617 19.44° C 100% 1002.7 hPa 0.76 mm - - -
1788558317 19.44° C 100% 1002.7 hPa 0.76 mm - - -
1788558017 19.44° C 100% 1002.7 hPa 0.76 mm - - -
1788557717 19.44° C 100% 1002.7 hPa 0.76 mm - - -
1788557417 19.44° C 100% 1002.7 hPa 0.76 mm - - -
1788557117 19.44° C 100% 1002.8 hPa 0.76 mm - - -
1788556817 19.44° C 100% 1002.9 hPa 0.51 mm - - -
1788556517 19.44° C 100% 1002.9 hPa 0 mm - - -
1788556217 19.44° C 100% 1002.9 hPa 0.25 mm - - -
1788555917 19.44° C 100% 1003 hPa 0.51 mm - - -
1788555617 19.44° C 100% 1003.1 hPa 0.51 mm - - -
1788555317 19.44° C 100% 1003.1 hPa 0.51 mm - - -
1788555017 19.44° C 100% 1003 hPa 0.76 mm - - -
1788554717 19.44° C 100% 1003.3 hPa 1.27 mm - - -
1788554417 19.44° C 100% 1003.2 hPa 1.52 mm - - -
1788554117 19.44° C 100% 1003.2 hPa 1.78 mm - - -
1788553815 20° C 100% 1003.4 hPa 1.78 mm - - -
1788553517 20° C 100% 1003.4 hPa 1.78 mm - - -
1788553217 20° C 100% 1003.5 hPa 1.78 mm - - -
1788552917 20° C 100% 1003.5 hPa 1.78 mm - - -
1788552617 20° C 100% 1003.5 hPa 1.52 mm - - -
1788552317 20° C 100% 1003.5 hPa 1.52 mm - - -
1788552017 20° C 100% 1003.6 hPa 1.27 mm - - -

* Rain latest hour (hover to see other rain measurements)
** Current wind speed in m/s (hover to see current wind gust speed)